datetime,storage
2003-10-01,138.0
2003-10-02,138.0
2003-10-03,138.0
2003-10-04,138.0
2003-10-05,138.0
2003-10-06,138.0
2003-10-07,138.0
2003-10-08,138.0
2003-10-09,138.0
2003-10-10,138.0
2003-10-11,138.0
2003-10-12,138.0
2003-10-13,138.0
2003-10-14,138.0
2003-10-15,138.0
2003-10-16,138.0
2003-10-17,138.0
2003-10-18,138.0
2003-10-19,138.0
2003-10-20,138.0
2003-10-21,138.0
2003-10-22,138.0
2003-10-23,138.0
2003-10-24,138.0
2003-10-25,138.0
2003-10-26,138.0
2003-10-27,138.0
2003-10-28,138.0
2003-10-29,138.0
2003-10-30,138.0
2003-10-31,138.0
2003-11-01,138.4
2003-11-02,138.8
2003-11-03,139.2
2003-11-04,139.6
2003-11-05,140.0
2003-11-06,140.4
2003-11-07,140.8
2003-11-08,141.2
2003-11-09,141.6
2003-11-10,141.6
2003-11-11,142.5
2003-11-12,142.5
2003-11-13,143.0
2003-11-14,143.5
2003-11-15,144.0
2003-11-16,144.5
2003-11-17,145.0
2003-11-18,145.5
2003-11-19,146.0
2003-11-20,146.5
2003-11-21,146.5
2003-11-22,147.4
2003-11-23,147.8
2003-11-24,148.2
2003-11-25,148.6
2003-11-26,149.0
2003-11-27,149.4
2003-11-28,149.8
2003-11-29,150.2
2003-11-30,150.6
2003-12-01,150.6
2003-12-02,151.4
2003-12-03,151.8
2003-12-04,152.2
2003-12-05,152.6
2003-12-06,153.0
2003-12-07,153.4
2003-12-08,153.8
2003-12-09,154.2
2003-12-10,154.6
2003-12-11,154.6
2003-12-12,155.4
2003-12-13,155.8
2003-12-14,156.2
2003-12-15,156.6
2003-12-16,157.0
2003-12-17,157.4
2003-12-18,157.8
2003-12-19,164.2
2003-12-20,173.5
2003-12-21,180.4
2003-12-22,194.4
2003-12-23,211.0
2003-12-24,217.8
2003-12-25,232.0
2003-12-26,255.5
2003-12-27,258.4
2003-12-28,262.8
2003-12-29,264.4
2003-12-30,268.5
2003-12-31,271.5
2004-01-01,276.2
2004-01-02,281.5
2004-01-03,284.4
2004-01-04,286.4
2004-01-05,287.2
2004-01-06,289.6
2004-01-07,292.5
2004-01-08,294.5
2004-01-09,295.4
2004-01-10,297.0
2004-01-11,298.2
2004-01-12,299.4
2004-01-13,299.8
2004-01-14,301.0
2004-01-15,302.2
2004-01-16,302.6
2004-01-17,304.0
2004-01-18,305.0
2004-01-19,306.0
2004-01-20,307.5
2004-01-21,308.4
2004-01-22,308.8
2004-01-23,309.6
2004-01-24,310.4
2004-01-25,312.5
2004-01-26,314.0
2004-01-27,315.5
2004-01-28,316.5
2004-01-29,317.8
2004-01-30,319.0
2004-01-31,320.6
2004-02-01,321.5
2004-02-02,323.0
2004-02-03,325.5
2004-02-04,327.2
2004-02-05,328.4
2004-02-06,329.6
2004-02-07,331.0
2004-02-08,333.5
2004-02-09,334.5
2004-02-10,336.0
2004-02-11,337.0
2004-02-12,338.0
2004-02-13,339.0
2004-02-14,339.5
2004-02-15,340.4
2004-02-16,341.2
2004-02-17,342.0
2004-02-18,342.8
2004-02-19,343.6
2004-02-20,345.0
2004-02-21,346.5
2004-02-22,348.0
2004-02-23,348.5
2004-02-24,349.8
2004-02-25,351.0
2004-02-26,352.2
2004-02-27,355.5
2004-02-28,357.5
2004-02-29,359.5
2004-03-01,361.0
2004-03-02,362.5
2004-03-03,363.5
2004-03-04,365.0
2004-03-05,366.5
2004-03-06,368.5
2004-03-07,370.0
2004-03-08,371.5
2004-03-09,372.5
2004-03-10,373.5
2004-03-11,375.0
2004-03-12,376.0
2004-03-13,377.5
2004-03-14,378.5
2004-03-15,380.0
2004-03-16,381.0
2004-03-17,382.0
2004-03-18,383.4
2004-03-19,384.2
2004-03-20,385.8
2004-03-21,387.5
2004-03-22,391.0
2004-03-23,394.5
2004-03-24,399.0
2004-03-25,404.5
2004-03-26,410.6
2004-03-27,417.0
2004-03-28,422.5
2004-03-29,425.5
2004-03-30,428.5
2004-03-31,432.0
2004-04-01,436.0
2004-04-02,442.2
2004-04-03,447.5
2004-04-04,453.0
2004-04-05,458.0
2004-04-06,464.4
2004-04-07,472.4
2004-04-08,479.5
2004-04-09,487.5
2004-04-10,493.2
2004-04-11,498.5
2004-04-12,502.5
2004-04-13,508.4
2004-04-14,514.6
2004-04-15,521.2
2004-04-16,527.8
2004-04-17,533.8
2004-04-18,541.6
2004-04-19,547.5
2004-04-20,554.4
2004-04-21,562.8
2004-04-22,568.8
2004-04-23,572.4
2004-04-24,577.8
2004-04-25,582.6
2004-04-26,588.0
2004-04-27,595.8
2004-04-28,606.0
2004-04-29,619.2
2004-04-30,629.8
2004-05-01,639.4
2004-05-02,654.2
2004-05-03,675.0
2004-05-04,706.4
2004-05-05,748.4
2004-05-06,797.1
2004-05-07,850.2
2004-05-08,901.0
2004-05-09,954.5
2004-05-10,1010.8
2004-05-11,1062.8
2004-05-12,1101.6
2004-05-13,1127.4
2004-05-14,1147.8
2004-05-15,1163.9
2004-05-16,1182.8
2004-05-17,1207.9
2004-05-18,1237.5
2004-05-19,1271.0
2004-05-20,1305.1
2004-05-21,1338.0
2004-05-22,1370.0
2004-05-23,1396.0
2004-05-24,1419.0
2004-05-25,1439.7
2004-05-26,1457.8
2004-05-27,1476.8
2004-05-28,1501.2
2004-05-29,1530.2
2004-05-30,1552.9
2004-05-31,1569.0
2004-06-01,1588.2
2004-06-02,1614.0
2004-06-03,1649.0
2004-06-04,1686.0
2004-06-05,1724.5
2004-06-06,1761.0
2004-06-07,1793.0
2004-06-08,1820.9
2004-06-09,1843.1
2004-06-10,1868.0
2004-06-11,1891.0
2004-06-12,1909.0
2004-06-13,1924.9
2004-06-14,1937.1
2004-06-15,1950.3
2004-06-16,1956.9
2004-06-17,1961.0
2004-06-18,1969.1
2004-06-19,1970.2
2004-06-20,1969.1
2004-06-21,1968.0
2004-06-22,1966.0
2004-06-23,1963.0
2004-06-24,1959.0
2004-06-25,1955.8
2004-06-26,1955.8
2004-06-27,1958.0
2004-06-28,1960.0
2004-06-29,1963.0
2004-06-30,1967.0
2004-07-01,1968.0
2004-07-02,1966.0
2004-07-03,1964.0
2004-07-04,1963.0
2004-07-05,1961.0
2004-07-06,1958.0
2004-07-07,1955.8
2004-07-08,1952.5
2004-07-09,1950.3
2004-07-10,1942.6
2004-07-11,1918.3
2004-07-12,1893.0
2004-07-13,1868.0
2004-07-14,1845.3
2004-07-15,1823.0
2004-07-16,1805.0
2004-07-17,1789.0
2004-07-18,1776.6
2004-07-19,1767.0
2004-07-20,1758.0
2004-07-21,1758.0
2004-07-22,1755.0
2004-07-23,1748.0
2004-07-24,1740.0
2004-07-25,1728.9
2004-07-26,1714.0
2004-07-27,1700.0
2004-07-28,1685.0
2004-07-29,1670.0
2004-07-30,1656.0
2004-07-31,1640.0
2004-08-01,1626.0
2004-08-02,1615.0
2004-08-03,1602.0
2004-08-04,1588.2
2004-08-05,1574.0
2004-08-06,1558.3
2004-08-07,1543.0
2004-08-08,1526.6
2004-08-09,1510.0
2004-08-10,1494.0
2004-08-11,1477.7
2004-08-12,1457.8
2004-08-13,1433.0
2004-08-14,1407.1
2004-08-15,1382.7
2004-08-16,1359.2
2004-08-17,1335.0
2004-08-18,1313.2
2004-08-19,1290.7
2004-08-20,1266.3
2004-08-21,1242.0
2004-08-22,1219.2
2004-08-23,1212.4
2004-08-24,1215.1
2004-08-25,1216.0
2004-08-26,1218.4
2004-08-27,1218.4
2004-08-28,1219.2
2004-08-29,1219.2
2004-08-30,1219.2
2004-08-31,1219.2
2004-09-01,1219.2
2004-09-02,1219.2
2004-09-03,1219.2
2004-09-04,1220.0
2004-09-05,1220.0
2004-09-06,1220.0
2004-09-07,1220.0
2004-09-08,1220.0
2004-09-09,1220.0
2004-09-10,1220.0
2004-09-11,1219.2
2004-09-12,1220.0
2004-09-13,1221.6
2004-09-14,1221.6
2004-09-15,1220.0
2004-09-16,1219.2
2004-09-17,1219.2
2004-09-18,1219.2
2004-09-19,1219.2
2004-09-20,1220.0
2004-09-21,1219.2
2004-09-22,1219.2
2004-09-23,1219.2
2004-09-24,1219.2
2004-09-25,1220.0
2004-09-26,1220.0
2004-09-27,1220.0
2004-09-28,1220.8
2004-09-29,1222.4
2004-09-30,1224.9
2004-10-01,1224.9
2004-10-02,1227.6
2004-10-03,1227.6
2004-10-04,1228.5
2004-10-05,1229.4
2004-10-06,1229.4
2004-10-07,1229.4
2004-10-08,1229.4
2004-10-09,1229.4
2004-10-10,1230.3
2004-10-11,1232.1
2004-10-12,1232.1
2004-10-13,1232.1
2004-10-14,1232.1
2004-10-15,1231.2
2004-10-16,1230.3
2004-10-17,1230.3
2004-10-18,1236.6
2004-10-19,1242.9
2004-10-20,1250.1
2004-10-21,1258.2
2004-10-22,1271.0
2004-10-23,1274.0
2004-10-24,1284.4
2004-10-25,1293.4
2004-10-26,1293.4
2004-10-27,1301.5
2004-10-28,1307.8
2004-10-29,1314.1
2004-10-30,1319.5
2004-10-31,1324.9
2004-11-01,1326.7
2004-11-02,1332.1
2004-11-03,1334.0
2004-11-04,1336.0
2004-11-05,1337.0
2004-11-06,1339.0
2004-11-07,1341.0
2004-11-08,1342.0
2004-11-09,1346.6
2004-11-10,1351.1
2004-11-11,1353.8
2004-11-12,1357.4
2004-11-13,1359.2
2004-11-14,1362.0
2004-11-15,1363.0
2004-11-16,1365.0
2004-11-17,1367.0
2004-11-18,1368.0
2004-11-19,1370.0
2004-11-20,1371.9
2004-11-21,1373.7
2004-11-22,1374.6
2004-11-23,1376.4
2004-11-24,1378.2
2004-11-25,1379.1
2004-11-26,1383.6
2004-11-27,1388.1
2004-11-28,1394.0
2004-11-29,1396.0
2004-11-30,1398.0
2004-12-01,1399.9
2004-12-02,1400.8
2004-12-03,1402.6
2004-12-04,1404.4
2004-12-05,1405.3
2004-12-06,1407.1
2004-12-07,1409.8
2004-12-08,1418.0
2004-12-09,1430.0
2004-12-10,1436.0
2004-12-11,1437.9
2004-12-12,1439.7
2004-12-13,1441.5
2004-12-14,1443.3
2004-12-15,1445.1
2004-12-16,1447.0
2004-12-17,1448.0
2004-12-18,1449.0
2004-12-19,1450.0
2004-12-20,1452.0
2004-12-21,1454.0
2004-12-22,1456.9
2004-12-23,1457.8
2004-12-24,1458.7
2004-12-25,1459.6
2004-12-26,1459.6
2004-12-27,1461.4
2004-12-28,1463.2
2004-12-29,1470.0
2004-12-30,1480.4
2004-12-31,1486.0
2005-01-01,1494.9
2005-01-02,1498.5
2005-01-03,1500.3
2005-01-04,1504.0
2005-01-05,1506.0
2005-01-06,1509.0
2005-01-07,1511.0
2005-01-08,1514.0
2005-01-09,1516.0
2005-01-10,1552.9
2005-01-11,1566.0
2005-01-12,1573.0
2005-01-13,1576.0
2005-01-14,1579.0
2005-01-15,1580.0
2005-01-16,1581.9
2005-01-17,1583.7
2005-01-18,1585.5
2005-01-19,1586.4
2005-01-20,1588.2
2005-01-21,1589.1
2005-01-22,1591.0
2005-01-23,1591.0
2005-01-24,1592.0
2005-01-25,1594.0
2005-01-26,1595.0
2005-01-27,1598.0
2005-01-28,1599.0
2005-01-29,1602.0
2005-01-30,1604.0
2005-01-31,1606.0
2005-02-01,1607.0
2005-02-02,1608.0
2005-02-03,1609.0
2005-02-04,1611.0
2005-02-05,1612.0
2005-02-06,1613.0
2005-02-07,1618.0
2005-02-08,1621.0
2005-02-09,1623.0
2005-02-10,1623.0
2005-02-11,1624.0
2005-02-12,1629.0
2005-02-13,1631.0
2005-02-14,1635.0
2005-02-15,1644.0
2005-02-16,1647.0
2005-02-17,1648.0
2005-02-18,1649.0
2005-02-19,1653.0
2005-02-20,1658.0
2005-02-21,1660.9
2005-02-22,1662.7
2005-02-23,1664.5
2005-02-24,1666.3
2005-02-25,1667.2
2005-02-26,1668.1
2005-02-27,1670.0
2005-02-28,1670.0
2005-03-01,1672.0
2005-03-02,1672.0
2005-03-03,1674.0
2005-03-04,1674.0
2005-03-05,1675.0
2005-03-06,1677.0
2005-03-07,1678.0
2005-03-08,1678.0
2005-03-09,1680.0
2005-03-10,1680.0
2005-03-11,1680.0
2005-03-12,1681.0
2005-03-13,1683.0
2005-03-14,1684.0
2005-03-15,1686.0
2005-03-16,1687.0
2005-03-17,1690.0
2005-03-18,1693.0
2005-03-19,1696.0
2005-03-20,1700.0
2005-03-21,1705.0
2005-03-22,1707.0
2005-03-23,1714.0
2005-03-24,1718.0
2005-03-25,1722.3
2005-03-26,1725.6
2005-03-27,1727.8
2005-03-28,1731.0
2005-03-29,1737.0
2005-03-30,1742.0
2005-03-31,1745.0
2005-04-01,1746.0
2005-04-02,1748.0
2005-04-03,1749.0
2005-04-04,1751.0
2005-04-05,1754.0
2005-04-06,1756.0
2005-04-07,1757.0
2005-04-08,1761.0
2005-04-09,1764.0
2005-04-10,1766.0
2005-04-11,1768.0
2005-04-12,1769.0
2005-04-13,1772.2
2005-04-14,1773.3
2005-04-15,1775.5
2005-04-16,1777.7
2005-04-17,1779.9
2005-04-18,1784.0
2005-04-19,1788.0
2005-04-20,1795.0
2005-04-21,1799.0
2005-04-22,1802.0
2005-04-23,1805.0
2005-04-24,1809.0
2005-04-25,1814.3
2005-04-26,1817.6
2005-04-27,1820.9
2005-04-28,1831.0
2005-04-29,1838.0
2005-04-30,1841.0
2005-05-01,1846.4
2005-05-02,1851.9
2005-05-03,1856.0
2005-05-04,1859.0
2005-05-05,1864.0
2005-05-06,1869.0
2005-05-07,1877.4
2005-05-08,1885.0
2005-05-09,1890.0
2005-05-10,1899.5
2005-05-11,1916.1
2005-05-12,1924.9
2005-05-13,1931.0
2005-05-14,1937.1
2005-05-15,1944.8
2005-05-16,1955.8
2005-05-17,1973.5
2005-05-18,1987.8
2005-05-19,2002.2
2005-05-20,2025.4
2005-05-21,2066.1
2005-05-22,2114.5
2005-05-23,2182.7
2005-05-24,2266.1
2005-05-25,2322.1
2005-05-26,2333.2
2005-05-27,2333.2
2005-05-28,2333.2
2005-05-29,2338.0
2005-05-30,2338.0
2005-05-31,2326.5
2005-06-01,2311.1
2005-06-02,2290.6
2005-06-03,2266.1
2005-06-04,2244.2
2005-06-05,2233.2
2005-06-06,2235.4
2005-06-07,2239.8
2005-06-08,2235.4
2005-06-09,2226.6
2005-06-10,2210.1
2005-06-11,2190.4
2005-06-12,2172.8
2005-06-13,2150.8
2005-06-14,2137.6
2005-06-15,2148.6
2005-06-16,2177.2
2005-06-17,2227.7
2005-06-18,2296.6
2005-06-19,2365.8
2005-06-20,2403.4
2005-06-21,2411.8
2005-06-22,2411.8
2005-06-23,2410.6
2005-06-24,2411.8
2005-06-25,2407.0
2005-06-26,2408.2
2005-06-27,2399.9
2005-06-28,2390.0
2005-06-29,2380.4
2005-06-30,2368.1
2005-07-01,2363.4
2005-07-02,2368.1
2005-07-03,2368.1
2005-07-04,2362.2
2005-07-05,2363.4
2005-07-06,2365.8
2005-07-07,2364.6
2005-07-08,2362.2
2005-07-09,2368.1
2005-07-10,2371.4
2005-07-11,2372.5
2005-07-12,2372.5
2005-07-13,2368.1
2005-07-14,2363.4
2005-07-15,2358.6
2005-07-16,2356.2
2005-07-17,2350.6
2005-07-18,2347.3
2005-07-19,2349.5
2005-07-20,2351.7
2005-07-21,2352.8
2005-07-22,2355.0
2005-07-23,2356.2
2005-07-24,2357.4
2005-07-25,2358.6
2005-07-26,2357.4
2005-07-27,2357.4
2005-07-28,2357.4
2005-07-29,2356.2
2005-07-30,2356.2
2005-07-31,2357.4
2005-08-01,2357.4
2005-08-02,2356.2
2005-08-03,2357.4
2005-08-04,2356.2
2005-08-05,2350.6
2005-08-06,2346.2
2005-08-07,2340.4
2005-08-08,2334.4
2005-08-09,2330.9
2005-08-10,2326.5
2005-08-11,2321.0
2005-08-12,2315.5
2005-08-13,2310.0
2005-08-14,2303.4
2005-08-15,2296.6
2005-08-16,2291.8
2005-08-17,2288.2
2005-08-18,2282.6
2005-08-19,2277.1
2005-08-20,2270.5
2005-08-21,2265.0
2005-08-22,2262.6
2005-08-23,2259.0
2005-08-24,2254.2
2005-08-25,2247.5
2005-08-26,2240.9
2005-08-27,2236.5
2005-08-28,2229.9
2005-08-29,2223.3
2005-08-30,2216.7
2005-08-31,2210.1
2005-09-01,2201.8
2005-09-02,2195.9
2005-09-03,2190.4
2005-09-04,2183.8
2005-09-05,2177.2
2005-09-06,2170.6
2005-09-07,2165.1
2005-09-08,2159.6
2005-09-09,2159.6
2005-09-10,2156.3
2005-09-11,2149.7
2005-09-12,2143.1
2005-09-13,2136.5
2005-09-14,2129.9
2005-09-15,2123.3
2005-09-16,2117.8
2005-09-17,2110.1
2005-09-18,2103.5
2005-09-19,2096.9
2005-09-20,2089.2
2005-09-21,2084.8
2005-09-22,2080.4
2005-09-23,2074.9
2005-09-24,2068.3
2005-09-25,2061.7
2005-09-26,2055.1
2005-09-27,2049.6
2005-09-28,2041.9
2005-09-29,2023.2
2005-09-30,1997.0
2005-10-01,1969.1
2005-10-02,1940.4
2005-10-03,1912.0
2005-10-04,1885.0
2005-10-05,1858.0
2005-10-06,1831.0
2005-10-07,1804.0
2005-10-08,1776.6
2005-10-09,1750.0
2005-10-10,1722.3
2005-10-11,1695.0
2005-10-12,1668.1
2005-10-13,1642.0
2005-10-14,1615.0
2005-10-15,1587.3
2005-10-16,1559.2
2005-10-17,1531.1
2005-10-18,1504.0
2005-10-19,1476.8
2005-10-20,1449.0
2005-10-21,1420.0
2005-10-22,1393.0
2005-10-23,1365.0
2005-10-24,1337.0
2005-10-25,1308.7
2005-10-26,1290.7
2005-10-27,1260.0
2005-10-28,1230.3
2005-10-29,1207.0
2005-10-30,1174.7
2005-10-31,1155.0
2005-11-01,1132.6
2005-11-02,1123.4
2005-11-03,1122.6
2005-11-04,1126.6
2005-11-05,1131.7
2005-11-06,1133.5
2005-11-07,1134.4
2005-11-08,1138.8
2005-11-09,1139.6
2005-11-10,1141.2
2005-11-11,1142.0
2005-11-12,1146.9
2005-11-13,1149.6
2005-11-14,1158.2
2005-11-15,1163.9
2005-11-16,1166.6
2005-11-17,1168.4
2005-11-18,1170.2
2005-11-19,1171.1
2005-11-20,1172.9
2005-11-21,1173.8
2005-11-22,1174.7
2005-11-23,1175.6
2005-11-24,1176.5
2005-11-25,1177.4
2005-11-26,1182.8
2005-11-27,1186.4
2005-11-28,1188.2
2005-11-29,1190.8
2005-11-30,1196.4
2005-12-01,1202.5
2005-12-02,1218.4
2005-12-03,1225.8
2005-12-04,1232.1
2005-12-05,1233.9
2005-12-06,1238.4
2005-12-07,1242.9
2005-12-08,1244.7
2005-12-09,1246.5
2005-12-10,1247.4
2005-12-11,1249.2
2005-12-12,1250.1
2005-12-13,1251.9
2005-12-14,1253.7
2005-12-15,1254.6
2005-12-16,1255.5
2005-12-17,1257.3
2005-12-18,1261.8
2005-12-19,1266.3
2005-12-20,1269.0
2005-12-21,1271.0
2005-12-22,1273.0
2005-12-23,1280.8
2005-12-24,1281.7
2005-12-25,1284.4
2005-12-26,1286.2
2005-12-27,1290.7
2005-12-28,1293.4
2005-12-29,1298.8
2005-12-30,1302.4
2005-12-31,1318.6
2006-01-01,1332.1
2006-01-02,1339.0
2006-01-03,1350.2
2006-01-04,1355.6
2006-01-05,1358.3
2006-01-06,1360.1
2006-01-07,1362.0
2006-01-08,1367.0
2006-01-09,1370.0
2006-01-10,1370.0
2006-01-11,1372.8
2006-01-12,1378.2
2006-01-13,1380.9
2006-01-14,1381.8
2006-01-15,1384.5
2006-01-16,1388.1
2006-01-17,1388.1
2006-01-18,1394.0
2006-01-19,1399.9
2006-01-20,1400.8
2006-01-21,1401.7
2006-01-22,1403.5
2006-01-23,1404.4
2006-01-24,1405.3
2006-01-25,1406.2
2006-01-26,1408.0
2006-01-27,1410.7
2006-01-28,1412.5
2006-01-29,1418.0
2006-01-30,1419.0
2006-01-31,1424.0
2006-02-01,1428.0
2006-02-02,1435.0
2006-02-03,1437.0
2006-02-04,1438.8
2006-02-05,1442.4
2006-02-06,1444.2
2006-02-07,1445.1
2006-02-08,1446.0
2006-02-09,1447.0
2006-02-10,1448.0
2006-02-11,1448.0
2006-02-12,1449.0
2006-02-13,1450.0
2006-02-14,1451.0
2006-02-15,1453.0
2006-02-16,1456.0
2006-02-17,1457.8
2006-02-18,1458.7
2006-02-19,1461.4
2006-02-20,1462.3
2006-02-21,1463.2
2006-02-22,1464.1
2006-02-23,1465.0
2006-02-24,1466.0
2006-02-25,1467.0
2006-02-26,1467.0
2006-02-27,1468.0
2006-02-28,1471.0
2006-03-01,1477.7
2006-03-02,1477.7
2006-03-03,1478.6
2006-03-04,1481.3
2006-03-05,1482.2
2006-03-06,1483.1
2006-03-07,1488.0
2006-03-08,1490.0
2006-03-09,1493.0
2006-03-10,1495.8
2006-03-11,1497.6
2006-03-12,1498.5
2006-03-13,1501.2
2006-03-14,1502.1
2006-03-15,1506.0
2006-03-16,1509.0
2006-03-17,1509.0
2006-03-18,1512.0
2006-03-19,1514.0
2006-03-20,1516.0
2006-03-21,1520.0
2006-03-22,1521.0
2006-03-23,1522.0
2006-03-24,1523.0
2006-03-25,1523.9
2006-03-26,1528.4
2006-03-27,1530.2
2006-03-28,1532.0
2006-03-29,1538.0
2006-03-30,1542.0
2006-03-31,1543.0
2006-04-01,1546.0
2006-04-02,1549.0
2006-04-03,1550.0
2006-04-04,1551.0
2006-04-05,1554.7
2006-04-06,1564.0
2006-04-07,1570.0
2006-04-08,1572.0
2006-04-09,1573.0
2006-04-10,1575.0
2006-04-11,1578.0
2006-04-12,1580.0
2006-04-13,1581.9
2006-04-14,1583.7
2006-04-15,1588.2
2006-04-16,1591.0
2006-04-17,1594.0
2006-04-18,1600.0
2006-04-19,1603.0
2006-04-20,1604.0
2006-04-21,1606.0
2006-04-22,1608.0
2006-04-23,1611.0
2006-04-24,1616.0
2006-04-25,1621.0
2006-04-26,1624.0
2006-04-27,1629.0
2006-04-28,1634.0
2006-04-29,1641.0
2006-04-30,1650.0
2006-05-01,1658.0
2006-05-02,1664.5
2006-05-03,1674.0
2006-05-04,1687.0
2006-05-05,1705.0
2006-05-06,1720.1
2006-05-07,1731.0
2006-05-08,1744.0
2006-05-09,1756.0
2006-05-10,1769.0
2006-05-11,1785.0
2006-05-12,1802.0
2006-05-13,1826.0
2006-05-14,1856.0
2006-05-15,1893.0
2006-05-16,1939.3
2006-05-17,1996.0
2006-05-18,2057.3
2006-05-19,2124.4
2006-05-20,2197.0
2006-05-21,2255.4
2006-05-22,2284.8
2006-05-23,2303.4
2006-05-24,2307.8
2006-05-25,2318.8
2006-05-26,2336.8
2006-05-27,2347.3
2006-05-28,2332.0
2006-05-29,2300.1
2006-05-30,2261.4
2006-05-31,2232.1
2006-06-01,2215.6
2006-06-02,2234.3
2006-06-03,2278.2
2006-06-04,2319.9
2006-06-05,2371.4
2006-06-06,2401.0
2006-06-07,2410.6
2006-06-08,2416.3
2006-06-09,2419.6
2006-06-10,2430.0
2006-06-11,2420.7
2006-06-12,2405.8
2006-06-13,2393.3
2006-06-14,2380.4
2006-06-15,2374.7
2006-06-16,2369.2
2006-06-17,2364.6
2006-06-18,2364.6
2006-06-19,2367.0
2006-06-20,2372.5
2006-06-21,2374.7
2006-06-22,2373.6
2006-06-23,2370.3
2006-06-24,2367.0
2006-06-25,2363.4
2006-06-26,2358.6
2006-06-27,2357.4
2006-06-28,2357.4
2006-06-29,2359.8
2006-06-30,2363.4
2006-07-01,2363.4
2006-07-02,2363.4
2006-07-03,2362.2
2006-07-04,2362.2
2006-07-05,2362.2
2006-07-06,2362.2
2006-07-07,2362.2
2006-07-08,2361.0
2006-07-09,2359.8
2006-07-10,2359.8
2006-07-11,2358.6
2006-07-12,2358.6
2006-07-13,2357.4
2006-07-14,2356.2
2006-07-15,2355.0
2006-07-16,2352.8
2006-07-17,2351.7
2006-07-18,2351.7
2006-07-19,2349.5
2006-07-20,2340.4
2006-07-21,2329.8
2006-07-22,2321.0
2006-07-23,2311.1
2006-07-24,2301.2
2006-07-25,2290.6
2006-07-26,2280.4
2006-07-27,2267.2
2006-07-28,2245.3
2006-07-29,2224.4
2006-07-30,2203.0
2006-07-31,2182.7
2006-08-01,2167.3
2006-08-02,2148.6
2006-08-03,2127.7
2006-08-04,2106.8
2006-08-05,2085.9
2006-08-06,2067.2
2006-08-07,2049.6
2006-08-08,2029.8
2006-08-09,2008.8
2006-08-10,1988.9
2006-08-11,1968.0
2006-08-12,1948.1
2006-08-13,1928.0
2006-08-14,1909.0
2006-08-15,1890.0
2006-08-16,1872.0
2006-08-17,1851.9
2006-08-18,1831.0
2006-08-19,1810.0
2006-08-20,1791.0
2006-08-21,1770.0
2006-08-22,1750.0
2006-08-23,1734.0
2006-08-24,1728.9
2006-08-25,1723.4
2006-08-26,1721.2
2006-08-27,1717.0
2006-08-28,1713.0
2006-08-29,1709.0
2006-08-30,1705.0
2006-08-31,1701.0
2006-09-01,1696.0
2006-09-02,1692.0
2006-09-03,1688.0
2006-09-04,1684.0
2006-09-05,1681.0
2006-09-06,1677.0
2006-09-07,1674.0
2006-09-08,1674.0
2006-09-09,1671.0
2006-09-10,1669.0
2006-09-11,1667.2
2006-09-12,1664.5
2006-09-13,1661.8
2006-09-14,1660.0
2006-09-15,1663.6
2006-09-16,1668.1
2006-09-17,1666.3
2006-09-18,1662.7
2006-09-19,1660.9
2006-09-20,1660.9
2006-09-21,1660.9
2006-09-22,1661.8
2006-09-23,1660.9
2006-09-24,1660.0
2006-09-25,1658.0
2006-09-26,1656.0
2006-09-27,1654.0
2006-09-28,1651.0
2006-09-29,1649.0
2006-09-30,1647.0
2006-10-01,1644.0
2006-10-02,1643.0
2006-10-03,1647.0
2006-10-04,1644.0
2006-10-05,1635.0
2006-10-06,1602.0
2006-10-07,1572.0
2006-10-08,1535.0
2006-10-09,1499.4
2006-10-10,1463.2
2006-10-11,1425.0
2006-10-12,1387.2
2006-10-13,1348.4
2006-10-14,1310.5
2006-10-15,1272.0
2006-10-16,1236.6
2006-10-17,1201.6
2006-10-18,1164.8
2006-10-19,1128.2
2006-10-20,1094.2
2006-10-21,1062.8
2006-10-22,1046.0
2006-10-23,1031.6
2006-10-24,1016.4
2006-10-25,1002.8
2006-10-26,1003.6
2006-10-27,1006.0
2006-10-28,1009.2
2006-10-29,1012.4
2006-10-30,1014.0
2006-10-31,1016.4
2006-11-01,1017.2
2006-11-02,1019.6
2006-11-03,1022.0
2006-11-04,1025.2
2006-11-05,1027.6
2006-11-06,1030.0
2006-11-07,1032.4
2006-11-08,1034.8
2006-11-09,1038.0
2006-11-10,1042.8
2006-11-11,1046.0
2006-11-12,1050.8
2006-11-13,1055.6
2006-11-14,1073.6
2006-11-15,1081.4
2006-11-16,1086.2
2006-11-17,1089.7
2006-11-18,1093.3
2006-11-19,1096.0
2006-11-20,1099.2
2006-11-21,1100.8
2006-11-22,1103.2
2006-11-23,1105.6
2006-11-24,1108.0
2006-11-25,1109.6
2006-11-26,1112.0
2006-11-27,1116.5
2006-11-28,1124.2
2006-11-29,1127.4
2006-11-30,1129.9
2006-12-01,1133.5
2006-12-02,1136.2
2006-12-03,1138.0
2006-12-04,1140.4
2006-12-05,1141.2
2006-12-06,1142.8
2006-12-07,1145.2
2006-12-08,1146.9
2006-12-09,1149.6
2006-12-10,1151.4
2006-12-11,1154.1
2006-12-12,1156.6
2006-12-13,1159.0
2006-12-14,1163.9
2006-12-15,1166.6
2006-12-16,1172.0
2006-12-17,1176.5
2006-12-18,1180.1
2006-12-19,1181.9
2006-12-20,1184.6
2006-12-21,1186.4
2006-12-22,1188.2
2006-12-23,1190.8
2006-12-24,1194.0
2006-12-25,1195.6
2006-12-26,1197.2
2006-12-27,1200.7
2006-12-28,1205.2
2006-12-29,1206.1
2006-12-30,1207.9
2006-12-31,1209.7
2007-01-01,1211.5
2007-01-02,1212.4
2007-01-03,1214.2
2007-01-04,1218.4
2007-01-05,1222.4
2007-01-06,1224.9
2007-01-07,1226.7
2007-01-08,1227.6
2007-01-09,1229.4
2007-01-10,1230.3
2007-01-11,1233.0
2007-01-12,1235.7
2007-01-13,1238.4
2007-01-14,1240.2
2007-01-15,1241.1
2007-01-16,1242.9
2007-01-17,1244.7
2007-01-18,1244.7
2007-01-19,1246.5
2007-01-20,1247.4
2007-01-21,1251.0
2007-01-22,1251.9
2007-01-23,1251.9
2007-01-24,1252.8
2007-01-25,1253.7
2007-01-26,1255.5
2007-01-27,1256.4
2007-01-28,1257.3
2007-01-29,1258.2
2007-01-30,1259.1
2007-01-31,1260.9
2007-02-01,1262.7
2007-02-02,1264.5
2007-02-03,1265.4
2007-02-04,1266.3
2007-02-05,1267.2
2007-02-06,1267.2
2007-02-07,1269.0
2007-02-08,1269.0
2007-02-09,1270.0
2007-02-10,1272.0
2007-02-11,1281.7
2007-02-12,1287.1
2007-02-13,1288.9
2007-02-14,1290.7
2007-02-15,1292.5
2007-02-16,1296.1
2007-02-17,1297.0
2007-02-18,1298.8
2007-02-19,1302.4
2007-02-20,1304.2
2007-02-21,1306.0
2007-02-22,1306.9
2007-02-23,1309.6
2007-02-24,1312.3
2007-02-25,1315.9
2007-02-26,1320.4
2007-02-27,1325.8
2007-02-28,1329.4
2007-03-01,1332.1
2007-03-02,1336.0
2007-03-03,1337.0
2007-03-04,1339.0
2007-03-05,1341.0
2007-03-06,1342.0
2007-03-07,1343.0
2007-03-08,1346.6
2007-03-09,1347.5
2007-03-10,1350.2
2007-03-11,1351.1
2007-03-12,1352.9
2007-03-13,1353.8
2007-03-14,1354.7
2007-03-15,1356.5
2007-03-16,1358.3
2007-03-17,1359.2
2007-03-18,1361.0
2007-03-19,1364.0
2007-03-20,1367.0
2007-03-21,1371.0
2007-03-22,1371.0
2007-03-23,1376.4
2007-03-24,1379.1
2007-03-25,1381.8
2007-03-26,1384.5
2007-03-27,1389.0
2007-03-28,1399.0
2007-03-29,1407.1
2007-03-30,1410.7
2007-03-31,1412.5
2007-04-01,1415.2
2007-04-02,1420.0
2007-04-03,1423.0
2007-04-04,1424.0
2007-04-05,1428.0
2007-04-06,1431.0
2007-04-07,1436.0
2007-04-08,1442.4
2007-04-09,1449.0
2007-04-10,1457.8
2007-04-11,1461.4
2007-04-12,1468.0
2007-04-13,1473.0
2007-04-14,1476.8
2007-04-15,1480.4
2007-04-16,1485.0
2007-04-17,1490.0
2007-04-18,1496.7
2007-04-19,1507.0
2007-04-20,1512.0
2007-04-21,1517.0
2007-04-22,1522.0
2007-04-23,1526.6
2007-04-24,1531.1
2007-04-25,1535.0
2007-04-26,1540.0
2007-04-27,1546.0
2007-04-28,1554.7
2007-04-29,1568.0
2007-04-30,1588.2
2007-05-01,1616.0
2007-05-02,1646.0
2007-05-03,1678.0
2007-05-04,1706.0
2007-05-05,1730.0
2007-05-06,1746.0
2007-05-07,1757.0
2007-05-08,1768.0
2007-05-09,1768.0
2007-05-10,1803.0
2007-05-11,1835.0
2007-05-12,1879.6
2007-05-13,1930.0
2007-05-14,1985.6
2007-05-15,2035.3
2007-05-16,2081.5
2007-05-17,2122.2
2007-05-18,2164.0
2007-05-19,2211.2
2007-05-20,2257.8
2007-05-21,2297.8
2007-05-22,2317.7
2007-05-23,2321.0
2007-05-24,2318.8
2007-05-25,2313.3
2007-05-26,2310.0
2007-05-27,2312.2
2007-05-28,2318.8
2007-05-29,2324.3
2007-05-30,2332.0
2007-05-31,2332.0
2007-06-01,2345.1
2007-06-02,2359.8
2007-06-03,2370.3
2007-06-04,2376.9
2007-06-05,2384.0